Location: Ammerl�gen
(47.2167°N, 9.6000°E)
Time: 03:57:40
(UTC+00:00)

CRYOSAT 2 - Pass Details

Date: 21 April 2021
Orbit: 714 x 724 km, 92.0° (Epoch: 16 May)

Event Time Altitude Azimuth Distance (km) Brightness Sun altitude
Exits shadow 21:17:15 77° 145° (SE) 748 4.2 -24.6°
Maximum altitude 21:17:34 84° 85° (E) 736 4.2 -24.6°
Drops below altitude 10° 21:22:30 10° 357° (N) 2,228 7.7 -25.1°
Sets 21:24:48 0° 356° (N) 3,153 8.7 -25.3°
